Location: Cicognara
(44.9500°N, 10.4667°E)
Time: 07:50:45
(UTC+00:00)

Lacrosse 4 Rocket - Pass Details

Date: 24 October 2021
Orbit: 537 x 619 km, 68.0° (Epoch: 01 December)

Event Time Altitude Azimuth Distance (km) Brightness Sun altitude
Rises 17:27:32 0° 332° (NNW) 2,812 5.3 -12.9°
Reaches altitude 10° 17:29:46 10° 335° (NNW) 1,921 4.4 -13.3°
Maximum altitude 17:34:04 65° 57° (ENE) 660 1.4 -14.0°
Drops below altitude 10° 17:38:26 10° 140° (SE) 1,953 3.8 -14.8°
Enters shadow 17:38:27 10° 140° (SE) 1,960 3.8 -14.8°
